This is the latest recevied weather packets stored in our database for station/object K4KMJ. If no packets are shown the sender has not sent any weather packets the latest 10 day(s).
| Time | Temp. | Humidity | Pressure | Rain* | Wind** | Luminosity | Snow |
|---|---|---|---|---|---|---|---|
| 1777818809 | 20.56° C | 94% | 1019.8 hPa | 0 mm | - | 221 W/m² | - |
| 1777818504 | 21.11° C | 95% | 1019.9 hPa | 0 mm | - | 232 W/m² | - |
| 1777818202 | 21.11° C | 95% | 1019.8 hPa | 0 mm | - | 653 W/m² | - |
| 1777817898 | 20.56° C | 96% | 1019.8 hPa | 0 mm | - | 555 W/m² | - |
| 1777817596 | 20.56° C | 97% | 1019.6 hPa | 0 mm | - | 305 W/m² | - |
| 1777817292 | 20° C | 98% | 1019.6 hPa | 0 mm | - | 374 W/m² | - |
| 1777816990 | 20° C | 99% | 1019.6 hPa | 0 mm | - | 248 W/m² | - |
| 1777816685 | 20° C | 99% | 1019.5 hPa | 0 mm | - | 214 W/m² | - |
| 1777816383 | 20° C | 99% | 1019.5 hPa | 0 mm | - | 237 W/m² | - |
| 1777816081 | 20° C | 99% | 1019.6 hPa | 0 mm | - | 253 W/m² | - |
| 1777815778 | 20° C | 99% | 1019.4 hPa | 0 mm | - | 477 W/m² | - |
| 1777815475 | 18.89° C | 99% | 1019.5 hPa | 0 mm | - | 273 W/m² | - |
| 1777815173 | 18.89° C | 99% | 1019.5 hPa | 0 mm | - | 229 W/m² | - |
| 1777814869 | 18.89° C | 99% | 1019.5 hPa | 0 mm | - | 206 W/m² | - |
| 1777814565 | 18.33° C | 99% | 1019.1 hPa | 0 mm | - | 280 W/m² | - |
| 1777814262 | 18.33° C | 99% | 1019.2 hPa | 0 mm | - | 377 W/m² | - |
| 1777813959 | 17.78° C | 99% | 1019.1 hPa | 0 mm | - | 144 W/m² | - |
| 1777813657 | 17.78° C | 99% | 1019.4 hPa | 0 mm | - | 98 W/m² | - |
| 1777813354 | 17.78° C | 99% | 1019.3 hPa | 0 mm | - | 78 W/m² | - |
| 1777813051 | 17.78° C | 99% | 1019.1 hPa | 0 mm | - | 79 W/m² | - |
| 1777812749 | 17.78° C | 99% | 1019 hPa | 0 mm | - | 110 W/m² | - |
| 1777812445 | 17.78° C | 99% | 1018.9 hPa | 0 mm | - | 75 W/m² | - |
| 1777812143 | 17.78° C | 99% | 1018.9 hPa | 0 mm | - | 71 W/m² | - |
| 1777811841 | 17.78° C | 99% | 1018.9 hPa | 0 mm | - | 68 W/m² | - |
| 1777811539 | 17.78° C | 99% | 1018.8 hPa | 0 mm | - | 84 W/m² | - |
* Rain latest hour (hover to see other rain measurements)
** Current wind speed in m/s (hover to see current wind gust speed)